{"data":{"norad_id":68165,"intl_designator":"2026-049Z","name":"STARLINK-36971","alt_names":[],"object_type":"PAYLOAD","status":"ACTIVE","operator":null,"country":"US","launch_date":"2026-03-13","launch_site_code":"AFWTR","launch_vehicle":null,"mission":null,"orbit_class":"UNKNOWN","rcs_meters":null,"size_class":null,"mass_kg":null,"dimensions":null,"purposes":["comms"],"wikipedia_slug":null,"has_3d_model":false,"image_url":null,"decayed_at":null,"tle_current":{"epoch":"2026-05-25T01:21:58.752864Z","epoch_age_seconds":67223,"freshness":"FRESH","line1":"1 68165U 26049Z   26145.05693001  .00011331  00000+0  35272-3 0  9999","line2":"2 68165  97.2852 166.7604 0001361  94.8826 265.2572 15.33451431 11358","mean_motion":15.33451431,"eccentricity":0.0001361,"inclination_deg":97.2852,"raan_deg":166.7604,"arg_perigee_deg":94.8826,"mean_anomaly_deg":265.2572,"bstar":0.00035272,"rev_number":1135,"period_min":93.905810832296,"perigee_km":464.592618146,"apogee_km":466.4554626812,"semimajor_km":6843.6610404136,"source":"CELESTRAK","updated_at":"2026-05-25T13:38:21.851412Z"}}}